Theta_e
321 325 323 321 320 319 319 321 319 319 319 318 316 316 317 318 318 318 317 317 319 321 321 322 322 323 321 314 313 316 313 314 317 319 314 307 306 309 314 317 317 313 309 312
320 321 324 322 320 319 320 320 316 317 318 316 314 312 315 315 317 317 317 317 317 317 320 321 321 320 313 313 314 315 312 315 317 314 306 304 305 304 307 306 306 308 311 310
318 318 319 323 321 319 320 319 307 309 312 309 315 313 313 316 314 315 316 315 314 315 316 317 318 319 314 309 309 309 311 313 316 316 314 306 308 306 306 306 305 305 306 305
318 317 319 323 321 319 320 320 310 313 307 305 310 315 315 315 316 311 313 313 315 315 315 315 316 317 314 310 308 308 309 310 308 308 306 306 307 307 306 306 305 305 304 304
316 317 320 323 321 320 320 318 311 309 307 312 310 310 312 318 315 311 312 314 312 314 315 314 313 313 313 312 307 307 305 308 303 295 302 302 303 303 303 303 303 302 301 300
317 317 321 323 322 320 320 319 318 318 307 306 311 313 316 313 313 311 311 312 311 311 312 309 308 309 307 308 309 306 305 302 301 302 301 301 300 299 299 299 299 299 299 298
318 321 322 323 323 320 320 319 318 316 308 308 310 310 312 313 312 314 309 309 308 305 306 305 304 304 304 304 305 305 305 304 304 302 301 296 299 298 298 298 298 297 298 297
319 321 321 321 321 322 320 320 319 318 318 309 308 309 309 309 306 305 307 305 306 304 302 300 301 299 299 300 302 304 304 302 301 299 300 299 296 298 297 298 297 296 294 295
319 320 321 321 322 322 320 319 318 319 308 307 310 308 307 304 303 302 300 303 303 300 298 300 302 304 298 297 297 297 300 298 294 295 293 294 298 297 297 297 296 296 294 295
320 320 321 322 322 322 320 318 317 319 305 304 307 305 305 303 301 301 299 300 299 297 296 297 299 298 296 295 296 297 297 295 291 286 287 292 296 297 297 291 292 296 296 296
319 320 321 321 321 319 316 313 315 319 303 302 304 304 303 301 300 301 298 298 296 293 292 297 296 296 296 296 296 296 296 294 293 292 285 290 297 297 293 293 295 295 295 295
319 320 321 321 320 318 313 311 311 315 307 297 300 303 305 304 304 300 297 298 295 295 293 289 293 296 295 295 292 294 295 294 291 293 293 294 297 296 295 295 295 295 295 296
320 319 319 318 315 311 312 311 310 313 297 294 295 295 297 301 301 301 299 296 296 295 295 292 292 295 292 292 293 294 293 293 293 293 294 293 295 295 295 296 296 297 297 297
320 319 319 315 310 311 313 312 309 308 297 294 293 293 294 296 299 299 299 299 296 295 295 293 291 292 293 292 292 291 292 293 294 289 292 293 294 295 295 296 297 297 297 297
317 315 310 310 311 311 311 307 306 303 301 294 293 293 293 293 294 295 295 297 296 295 293 289 290 292 292 291 292 292 292 292 289 290 293 293 294 295 296 297 297 297 297 296
316 310 310 309 308 308 306 296 295 295 296 295 294 294 294 293 293 295 295 295 295 294 293 291 292 293 293 289 292 293 294 294 294 293 294 295 295 294 296 297 297 295 295 296
308 308 307 305 301 299 295 295 295 294 293 293 291 292 294 294 294 293 293 293 293 293 293 292 292 293 294 286 292 293 294 295 295 294 295 295 294 295 297 297 296 295 295 295
300 297 296 296 296 295 296 295 295 296 296 295 294 293 294 294 294 296 295 295 294 294 293 293 292 292 291 291 292 293 294 294 294 295 294 294 295 297 297 296 295 294 294 294
296 296 295 294 295 296 296 296 297 297 297 294 293 293 291 295 295 295 295 295 290 293 287 292 291 290 291 293 293 294 294 294 295 295 297 297 298 297 296 295 294 293 293 293
295 293 293 295 295 296 295 295 295 295 296 297 292 294 293 295 294 291 293 293 286 288 291 292 289 292 293 294 295 296 296 296 295 297 296 296 296 295 295 295 294 293 293 293
293 293 294 294 294 294 295 295 294 294 293 296 295 295 292 295 291 290 293 290 290 288 289 291 293 292 289 295 295 295 296 296 296 295 295 295 294 294 294 294 293 293 293 293
294 294 294 294 294 294 290 289 293 295 295 294 294 295 297 296 296 292 292 293 290 294 292 294 289 292 295 294 295 295 295 295 294 294 294 294 294 294 294 294 294 293 292 291
294 295 293 293 289 288 288 290 294 292 294 295 296 291 297 296 295 293 292 295 290 294 296 293 293 294 294 294 295 295 295 295 294 294 293 294 293 292 291 291 291 291 290 289
293 292 287 286 283 291 290 291 291 294 296 297 297 295 295 295 293 291 292 293 293 291 293 294 285 294 294 295 295 295 294 293 293 293 292 291 289 288 288 289 288 288 287 287
293 292 286 288 292 294 295 295 296 295 296 297 295 294 295 289 289 291 294 293 294 294 292 288 295 295 295 294 295 294 293 292 292 290 289 288 287 286 286 285 285 286 285 285
293 293 293 294 294 292 295 296 296 296 297 297 296 290 291 293 294 295 293 295 293 290 289 296 295 295 295 294 293 291 291 290 289 288 286 285 285 285 285 285 285 285 284 284
294 289 294 293 294 293 294 295 296 297 297 288 292 292 295 291 291 295 292 288 284 294 295 295 294 294 292 291 290 289 288 288 286 285 285 285 285 284 284 284 283 283 282 283
Wind_Speed
38 44 39 38 37 37 33 27 6 13 23 9 5 4 6 7 4 12 4 2 5 7 6 5 5 7 9 7 7 3 4 2 7 13 7 3 3 2 2 5 3 3 2 6
32 33 41 42 41 42 42 20 8 20 32 6 6 1 3 6 6 6 7 7 7 6 6 5 11 8 3 6 6 6 5 3 6 6 4 4 2 3 4 2 1 6 7 3
41 34 31 44 43 45 44 14 3 6 21 2 3 5 4 5 8 4 5 3 3 2 4 6 3 3 2 2 3 7 6 4 8 14 10 3 3 2 2 4 3 4 6 14
41 34 33 46 47 49 48 20 7 11 5 4 4 6 8 6 6 6 9 4 12 7 5 3 7 7 4 3 9 4 3 5 6 8 8 6 8 7 7 8 7 7 11 16
40 32 42 48 51 50 44 18 9 7 7 13 15 8 8 11 3 8 5 8 12 10 8 10 5 3 3 3 4 5 1 2 1 4 8 8 7 6 11 13 14 15 13 14
38 43 44 42 55 58 27 26 24 18 11 4 9 8 12 12 9 8 5 11 4 8 10 4 5 6 5 5 5 6 5 2 1 3 4 5 6 5 5 2 4 6 9 9
43 41 42 46 52 62 45 28 26 10 3 6 7 9 14 11 12 7 4 9 5 5 8 8 5 2 3 6 6 6 4 4 2 2 4 2 2 2 2 3 7 7 7 6
44 45 37 46 49 60 60 39 31 19 10 10 4 9 5 12 9 4 3 2 6 16 7 3 2 0 1 3 5 8 4 3 1 2 2 7 2 3 3 3 6 4 5 8
40 45 39 36 41 48 59 45 41 31 8 8 10 7 9 4 4 3 3 9 20 8 2 2 4 3 1 2 2 4 4 3 3 2 1 4 2 4 4 3 4 5 8 8
38 40 39 37 38 43 60 38 45 25 9 8 13 4 6 10 6 4 5 8 4 2 2 2 3 3 3 3 4 4 3 1 4 2 3 7 3 5 3 5 6 5 10 19
40 30 32 32 41 36 52 33 32 27 11 12 8 9 11 12 11 4 10 6 2 2 3 2 2 2 2 1 1 3 4 3 3 3 1 6 9 5 5 7 19 26 24 24
37 33 36 39 43 44 47 30 22 21 14 12 16 12 11 11 12 15 16 2 5 7 4 1 2 2 2 3 2 1 3 6 4 7 5 4 13 11 21 24 26 29 24 18
31 27 36 37 43 49 42 32 28 24 20 18 15 15 12 13 8 13 8 6 7 7 6 6 2 2 3 3 4 3 3 6 3 1 3 11 17 19 24 17 16 16 18 17
33 32 29 30 39 36 28 29 24 22 16 7 5 9 14 12 11 9 6 10 13 15 9 4 2 2 5 3 2 4 7 7 5 5 9 15 23 15 14 14 15 16 15 15
29 27 32 33 33 27 29 28 20 18 6 7 12 18 13 9 6 7 8 12 16 11 4 3 2 3 3 1 1 4 9 6 4 6 11 11 10 13 12 12 17 11 10 11
31 37 36 32 31 31 35 16 10 17 37 13 3 9 8 11 11 13 13 11 8 5 4 3 2 3 4 2 3 7 15 16 20 8 14 17 16 20 16 13 9 7 10 9
43 38 35 34 34 26 5 11 21 20 12 9 4 3 5 9 10 10 9 7 5 4 4 3 3 4 6 2 3 4 6 10 15 19 18 17 23 17 8 10 9 9 10 10
49 48 43 32 25 33 34 27 20 16 16 9 4 2 4 5 4 3 3 3 2 2 2 3 3 4 4 4 10 13 13 14 15 15 21 25 18 11 11 9 9 11 11 10
49 43 36 31 25 15 24 23 20 16 11 7 4 4 3 7 4 4 3 3 2 0 1 2 3 2 4 4 6 15 20 15 17 13 7 7 8 9 8 9 11 14 14 13
41 35 12 7 14 28 18 6 3 6 8 7 2 4 3 5 2 2 3 1 1 0 3 4 2 3 12 11 16 19 21 15 11 7 1 5 7 8 12 16 18 16 17 18
24 6 7 32 24 7 5 4 6 4 4 4 3 6 5 4 3 3 3 2 2 1 4 2 2 3 2 5 2 4 6 4 7 9 7 5 8 12 14 16 18 20 20 18
15 30 30 12 4 5 6 2 1 3 3 2 5 5 6 5 3 4 3 2 1 2 4 1 3 3 3 4 4 3 4 5 9 8 8 12 16 20 22 23 23 18 15 14
38 9 6 1 6 8 5 3 2 3 5 7 7 2 5 4 3 4 2 1 3 3 2 3 3 5 6 5 3 6 8 10 12 14 15 16 15 14 16 17 17 15 16 16
6 5 6 3 3 1 3 3 4 5 13 21 16 6 3 3 3 2 3 2 2 2 3 4 3 7 8 8 11 12 11 15 16 17 17 20 19 19 18 16 16 17 17 15
6 5 3 2 5 8 11 13 13 17 20 15 9 5 4 2 3 0 2 1 3 4 4 2 4 4 8 11 11 13 16 17 15 15 17 17 17 17 16 15 16 16 16 16
4 6 6 10 9 3 12 21 16 14 16 11 5 3 3 1 2 2 5 2 4 3 3 4 7 10 13 14 12 15 16 16 14 11 11 12 13 17 19 19 15 14 14 14
5 4 13 8 13 9 8 12 11 13 7 2 3 3 2 2 2 1 3 4 3 2 6 8 9 12 12 16 18 17 15 12 12 13 16 16 17 16 14 11 11 11 11 9
Wind_Direction
213 205 202 203 199 193 189 184 196 185 187 183 211 190 174 176 175 223 220 287 239 209 197 217 230 224 206 134 148 190 173 257 270 272 261 66 71 347 135 224 226 217 256 266
208 205 205 201 197 191 183 184 163 182 185 200 210 219 178 186 158 185 185 228 211 215 201 254 228 225 93 157 171 163 161 225 302 295 27 39 77 48 113 78 136 237 271 297
219 220 222 198 196 192 188 163 142 171 203 225 196 152 200 190 203 218 169 174 138 159 220 234 258 209 186 124 110 119 131 218 226 256 286 85 272 208 83 186 228 295 249 292
213 219 221 202 195 194 192 184 196 181 190 214 198 187 166 164 191 211 192 216 215 181 216 214 230 239 164 171 152 130 183 248 216 264 279 264 246 228 218 226 232 245 286 275
213 218 226 201 194 194 193 190 162 164 161 168 198 187 197 216 157 150 222 224 208 202 214 210 202 158 156 182 122 150 162 271 270 263 248 248 262 238 235 233 247 257 274 287
209 211 220 210 194 191 198 199 192 197 164 148 174 207 204 193 143 216 205 214 165 206 230 151 134 149 143 156 176 175 178 183 139 272 29 315 286 247 236 259 276 273 277 288
209 212 216 214 206 197 201 205 200 169 196 188 201 174 200 189 197 218 169 175 147 118 138 119 94 105 189 189 201 182 176 164 185 314 347 278 196 29 288 290 279 306 318 300
204 208 216 215 218 206 204 208 197 197 216 185 171 149 167 112 101 90 112 89 168 154 114 81 117 129 267 235 220 212 198 108 225 239 251 312 149 10 59 39 298 248 231 268
206 200 196 201 214 206 206 207 212 203 144 201 168 160 155 134 118 97 102 125 140 116 103 121 174 200 161 148 110 50 125 103 133 131 172 269 204 190 181 182 284 242 225 271
200 210 201 207 208 210 212 207 204 194 113 123 150 145 153 141 128 115 134 150 149 161 119 126 168 188 166 190 175 165 139 109 177 167 224 282 227 172 130 77 248 305 293 293
195 206 204 210 209 204 205 196 191 191 121 123 132 136 143 136 139 141 152 104 238 78 84 147 181 153 181 165 203 165 166 168 216 137 104 281 166 121 144 239 297 303 293 301
204 213 210 208 209 204 196 170 163 156 109 107 105 118 164 165 162 143 167 127 146 154 99 60 120 144 127 151 252 124 218 188 189 183 216 208 191 259 294 295 296 295 296 299
194 196 190 198 197 189 189 162 146 142 94 82 81 89 97 172 167 159 134 175 158 151 128 144 144 149 133 168 225 203 244 188 213 33 244 248 268 293 299 309 294 303 294 290
186 182 182 184 179 177 179 164 148 136 108 104 87 108 93 98 154 166 159 162 148 138 122 92 134 155 187 217 224 191 204 162 208 258 277 272 274 271 289 282 287 302 287 279
174 164 160 164 161 154 157 139 129 124 114 135 128 94 74 90 116 123 115 152 146 135 97 87 187 153 139 210 358 237 184 200 170 227 231 229 259 311 291 282 309 312 281 288
157 153 151 149 144 143 129 90 105 129 118 108 94 95 92 95 112 121 122 133 126 107 116 150 186 198 182 167 233 238 224 238 240 241 269 248 274 301 288 283 294 295 288 276
143 138 134 130 130 139 128 132 140 133 117 101 100 91 118 116 96 95 95 104 112 114 129 167 187 213 196 165 239 242 253 269 272 270 268 275 281 286 284 276 271 283 283 275
126 127 135 135 133 109 103 107 116 115 93 85 98 97 111 149 107 87 85 91 117 112 145 145 204 183 217 248 244 281 288 305 280 282 257 259 269 274 293 267 275 280 285 280
135 136 131 124 105 95 102 94 86 79 80 98 88 136 168 151 98 100 85 72 29 156 58 239 159 220 227 244 322 310 298 285 283 287 251 234 260 289 268 272 278 276 274 275
137 127 113 88 116 119 110 64 62 45 50 65 94 115 100 134 104 64 98 64 172 168 255 180 165 250 267 298 321 304 295 283 261 208 32 316 296 279 271 274 276 272 279 287
129 96 92 121 126 100 69 66 51 31 52 58 101 107 119 140 118 156 178 179 177 78 259 131 269 265 237 323 37 78 81 94 74 25 1 285 267 270 274 281 283 277 277 270
118 122 120 112 99 79 83 13 8 59 139 109 107 109 100 116 120 107 198 138 56 254 151 219 268 251 206 224 209 147 74 14 350 334 303 284 283 285 286 284 283 279 269 278
116 109 96 12 11 51 97 155 35 84 175 146 135 87 103 120 129 81 96 117 225 119 237 236 241 182 190 195 210 236 280 317 320 314 299 288 292 307 317 317 311 300 302 311
73 64 46 78 350 113 172 139 149 138 141 133 124 97 127 114 78 124 104 237 83 339 239 237 255 226 238 257 274 272 290 307 299 297 303 313 317 320 319 316 313 314 317 316
71 63 82 70 113 74 103 105 108 115 128 125 106 81 94 38 80 186 128 17 251 225 238 236 299 289 272 277 272 276 300 299 292 298 307 311 315 316 315 316 309 305 304 310
74 73 86 112 97 66 109 113 106 126 129 114 96 99 72 140 133 129 205 215 231 251 224 316 323 306 299 290 292 312 314 308 295 294 309 319 325 320 314 312 307 300 304 310
54 36 120 109 128 125 112 120 126 140 135 123 112 99 168 121 71 236 187 210 219 284 309 301 308 308 308 314 323 322 318 317 330 339 338 329 323 325 333 335 338 336 339 333